Location: Alberta Star Party
(51.6612°N, 112.9089°W)
Time: 18:34:29
(UTC-07:00)

Amateur Radio Satellites - All Passes

Search period start: 26 November 2014 18:04
Search period end: 27 November 2014 18:04
Location: Alberta Star Party, 51.6612°N, 112.9089°W

Satellite Date Start Highest point End Downlink Frequencies (MHz)
Time Altitude Azimuth
MOZHAYETS 4 26 Nov 18:04:25 18:09:05 72° 287° (WNW) 18:13:44
JAS-2 26 Nov 18:09:17 18:16:11 34° 270° (W) 18:23:11 435.910
CUBESAT XI-V 26 Nov 18:11:50 18:14:39 16° 87° (E) 18:17:26 437.345
PHONESAT 2.4 26 Nov 18:32:37 18:34:18 13° 192° (SSW) 18:35:58 2401.200-2431.200
CUTE-I 26 Nov 18:37:35 18:42:36 39° 263° (W) 18:47:37 437.470
RS-15 26 Nov 18:37:36 18:48:26 64° 324° (NW) 18:59:29 29.354- 29.394
AIST 1 26 Nov 18:38:10 18:39:27 11° 80° (E) 18:40:44
PCSat 26 Nov 18:38:44 18:40:29 12° 102° (ESE) 18:42:13 145.827
VERMONT LUNAR 26 Nov 18:41:49 18:42:06 10° 197° (SSW) 18:42:23 437.305
CANX-2 26 Nov 18:46:44 18:48:17 12° 54° (NE) 18:49:51 2200.000
HO-68 26 Nov 18:49:13 18:55:20 32° 52° (NE) 19:01:27 435.675
GONETS M04 26 Nov 18:53:23 19:02:03 54° 70° (ENE) 19:10:37
STRAND 1 26 Nov 18:59:09 19:03:54 37° 96° (E) 19:08:35 437.568
PRISM 26 Nov 19:00:22 19:04:40 89° 105° (ESE) 19:08:54 437.425
CUTE 1.7 + AOD 2 26 Nov 19:19:24 19:22:31 20° 60° (ENE) 19:25:40 437.475
GOMX 1 26 Nov 19:32:11 19:35:38 22° 61° (ENE) 19:38:57 467.674
Cubesat XI-IV 26 Nov 19:39:25 19:42:09 14° 275° (W) 19:44:54 437.490
MOZHAYETS 4 26 Nov 19:43:22 19:45:32 13° 307° (NW) 19:47:41
CUBESAT XI-V 26 Nov 19:48:00 19:52:42 79° 286° (WNW) 19:57:21 437.345
UKube-1 26 Nov 19:49:01 19:51:43 16° 56° (NE) 19:54:25 .
SEEDS 26 Nov 19:50:35 19:54:20 33° 66° (ENE) 19:58:08 437.485
Oscar 11 26 Nov 19:59:07 20:02:14 20° 59° (ENE) 20:05:22 145.826/435.025
BEESAT 3 26 Nov 20:00:54 20:04:05 22° 116° (ESE) 20:07:19 437.485
BRITE-PL 26 Nov 20:03:35 20:08:17 51° 70° (ENE) 20:12:38 437.365/2234.400
AAUSAT CUBESAT 2 26 Nov 20:05:40 20:09:28 35° 67° (ENE) 20:13:18 437.432
DELFI C3 26 Nov 20:07:45 20:10:39 19° 60° (ENE) 20:13:35 145.870
AIST 1 26 Nov 20:11:55 20:16:20 84° 99° (E) 20:20:48
BEESAT 2 26 Nov 20:16:37 20:20:08 27° 118° (ESE) 20:23:43 435.950
PCSat 26 Nov 20:17:29 20:22:49 62° 121° (ESE) 20:28:12 145.827
CANX-2 26 Nov 20:19:18 20:23:30 74° 74° (ENE) 20:27:45 2200.000
COMPASS 1 26 Nov 20:21:14 20:25:19 54° 71° (ENE) 20:29:26 437.405
UWE-3 26 Nov 20:21:24 20:24:09 17° 59° (ENE) 20:26:55 435.000/436.395/437.385
CUBEBUG 2 26 Nov 20:22:36 20:25:39 20° 60° (ENE) 20:28:41 437.445
DOVE 4 26 Nov 20:23:09 20:27:24 43° 69° (ENE) 20:31:28 437.250
DX 1 26 Nov 20:23:59 20:27:50 31° 64° (ENE) 20:31:42 434.975-435.025
HUMSAT D 26 Nov 20:32:20 20:34:12 13° 55° (NE) 20:36:04 437.325/437.525
HO-68 26 Nov 20:35:19 20:42:31 75° 254° (WSW) 20:49:45 435.675
PRISM 26 Nov 20:37:17 20:39:37 15° 305° (NW) 20:41:57 437.425
STRAND 1 26 Nov 20:38:23 20:43:08 39° 296° (WNW) 20:47:49 437.568
GONETS M04 26 Nov 20:50:34 20:58:47 45° 274° (W) 21:06:55
CINEMA 3 26 Nov 20:52:42 20:56:54 52° 70° (ENE) 21:00:59 145.822/145.860
RS-15 26 Nov 20:52:54 21:03:09 42° 356° (N) 21:13:40 29.354- 29.394
ZACube-1 26 Nov 20:53:32 20:57:07 28° 64° (ENE) 21:00:41 437.345
CUTE 1.7 + AOD 2 26 Nov 20:53:58 20:58:07 56° 260° (W) 21:02:19 437.475
AIST 2 26 Nov 20:54:33 20:58:22 33° 120° (ESE) 21:02:14 435.215
VELOX 1 26 Nov 20:57:56 21:01:32 25° 61° (ENE) 21:05:09 145.980
ESTCUBE 1 26 Nov 21:01:27 21:03:37 13° 53° (NE) 21:05:47 437.505/2401.250
GOMX 1 26 Nov 21:08:55 21:13:31 57° 259° (W) 21:17:51 467.674
UKube-1 26 Nov 21:22:59 21:27:21 81° 255° (WSW) 21:31:44 .
AISAT 26 Nov 21:24:02 21:28:13 40° 66° (ENE) 21:32:25 437.250
SEEDS 26 Nov 21:26:27 21:30:12 31° 265° (W) 21:33:59 437.485
CUBESAT XI-V 26 Nov 21:26:57 21:29:25 14° 306° (NW) 21:31:52 437.345
FUNcube-1 26 Nov 21:27:42 21:31:48 57° 71° (ENE) 21:35:53 145.935
Oscar 11 26 Nov 21:33:46 21:38:02 61° 259° (WSW) 21:42:20 145.826/435.025
CUBEBUG 1 26 Nov 21:34:29 21:37:54 22° 60° (ENE) 21:41:19 437.445
BEESAT 3 26 Nov 21:37:52 21:41:58 62° 316° (NW) 21:46:09 437.485
DELFI C3 26 Nov 21:41:35 21:45:36 57° 259° (W) 21:49:41 145.870
AAUSAT CUBESAT 2 26 Nov 21:41:36 21:45:14 29° 266° (W) 21:48:54 437.432
BRITE-PL 26 Nov 21:43:08 21:47:02 24° 267° (W) 21:50:45 437.365/2234.400
50 SAT 26 Nov 21:48:05 21:51:58 49° 70° (ENE) 21:55:53 437.505
UNISAT 6 26 Nov 21:49:58 21:50:22 10° 85° (E) 21:50:46 437.425
AIST 1 26 Nov 21:52:12 21:54:40 15° 300° (WNW) 21:57:10
BEESAT 2 26 Nov 21:54:10 21:58:14 51° 318° (NW) 22:02:22 435.950
UWE-3 26 Nov 21:56:07 22:00:18 67° 258° (WSW) 22:04:28 435.000/436.395/437.385
CANX-2 26 Nov 21:57:39 21:59:59 14° 272° (W) 22:02:21 2200.000
CUBEBUG 2 26 Nov 21:57:54 22:02:04 56° 259° (W) 22:06:11 437.445
COMPASS 1 26 Nov 21:58:25 22:01:24 19° 270° (W) 22:04:25 437.405
DX 1 26 Nov 21:59:58 22:04:01 37° 262° (W) 22:08:07 434.975-435.025
PCSat 26 Nov 22:01:38 22:06:36 35° 323° (NW) 22:11:35 145.827
DOVE 4 26 Nov 22:01:40 22:05:23 25° 266° (W) 22:08:58 437.250
HUMSAT D 26 Nov 22:05:16 22:09:24 86° 75° (ENE) 22:13:33 437.325/437.525
CUSAT 1 26 Nov 22:14:37 22:16:56 14° 63° (ENE) 22:19:34 437.405
ANTELSAT 26 Nov 22:16:31 22:19:40 19° 90° (E) 22:22:51 437.575/2403.000
POLYITAN 1 26 Nov 22:24:08 22:26:35 15° 88° (E) 22:29:01 437.675
QB50P2 26 Nov 22:25:42 22:28:15 15° 89° (E) 22:30:47 145.880/145.840
HO-68 26 Nov 22:26:55 22:31:28 18° 275° (W) 22:36:02 435.675
ZACube-1 26 Nov 22:29:33 22:33:26 36° 263° (W) 22:37:18 437.345
DUCHIFAT 1 26 Nov 22:30:57 22:33:43 17° 90° (E) 22:36:29 145.980
CINEMA 3 26 Nov 22:31:15 22:34:26 20° 269° (W) 22:37:34 145.822/145.860
AIST 2 26 Nov 22:32:47 22:36:55 46° 320° (NW) 22:41:06 435.215
VELOX 1 26 Nov 22:33:32 22:37:54 50° 260° (W) 22:42:16 145.980
ESTCUBE 1 26 Nov 22:35:11 22:39:44 75° 73° (ENE) 22:44:19 437.505/2401.250
AUBIESAT-1 26 Nov 22:37:49 22:39:56 13° 44° (NE) 22:42:07 437.475
TISAT 1 26 Nov 22:41:36 22:45:11 27° 63° (ENE) 22:48:45 437.305
M-CUBED/EXP-1 PRIME 26 Nov 22:43:11 22:45:44 15° 46° (NE) 22:48:23 437.505
DANDE 26 Nov 22:44:00 22:47:05 19° 67° (ENE) 22:50:48 436.750
NANOSAT C BR1 26 Nov 22:50:00 22:53:32 25° 94° (E) 22:57:03 145.865
SPROUT 26 Nov 22:54:11 22:57:58 30° 64° (ENE) 23:01:45 437.525
QB50P1 26 Nov 22:59:53 23:03:40 31° 96° (E) 23:07:26 145.935-145.965
AISAT 26 Nov 23:01:06 23:04:59 29° 265° (W) 23:08:53 437.250
BEESAT 26 Nov 23:01:57 23:03:36 12° 49° (NE) 23:05:16 436.000
UKube-1 26 Nov 23:03:01 23:04:15 11° 274° (W) 23:05:29 .
BUGSAT 1 26 Nov 23:05:35 23:09:11 29° 95° (E) 23:12:44 437.445
FUNcube-1 26 Nov 23:05:40 23:08:33 18° 270° (W) 23:11:25 145.935
RS-15 26 Nov 23:07:23 23:18:13 55° 29° (NNE) 23:29:26 29.354- 29.394
TIGRISAT 26 Nov 23:09:20 23:13:40 53° 100° (E) 23:18:04 435.000
CUBEBUG 1 26 Nov 23:09:36 23:13:58 56° 259° (W) 23:18:22 437.445
BEESAT 3 26 Nov 23:17:55 23:21:00 19° 338° (NNW) 23:24:05 437.485
UNISAT 6 26 Nov 23:23:31 23:27:57 74° 103° (ESE) 23:32:28 437.425
POPSAT HIP 1 26 Nov 23:24:37 23:28:47 53° 101° (E) 23:32:54 437.405
50 SAT 26 Nov 23:24:38 23:27:35 19° 269° (W) 23:30:33 437.505
BEESAT 2 26 Nov 23:34:31 23:37:26 18° 341° (NNW) 23:40:23 435.950
MaSat-1 26 Nov 23:37:16 23:39:21 28° 51° (NE) 23:41:26 437.345
HUMSAT D 26 Nov 23:44:17 23:45:51 12° 274° (W) 23:47:25 437.325/437.525
PCSat 26 Nov 23:48:05 23:51:37 17° 348° (NNW) 23:55:10 145.827
ISS 26 Nov 23:52:10 23:54:43 21° 145° (SE) 23:57:17 145.825
ANTELSAT 26 Nov 23:52:29 23:56:52 62° 289° (WNW) 00:01:20 437.575/2403.000
ITUPSAT 1 26 Nov 23:55:13 23:59:18 28° 61° (ENE) 00:03:24 437.325
CUSAT 1 26 Nov 23:56:03 00:00:23 86° 78° (ENE) 00:06:17 437.405
POLYITAN 1 26 Nov 23:58:49 00:03:03 72° 287° (WNW) 00:07:16 437.675
QB50P2 27 Nov 00:00:26 00:04:40 69° 288° (WNW) 00:08:52 145.880/145.840
SWISSCUBE 27 Nov 00:05:23 00:09:45 36° 64° (ENE) 00:14:09 437.505
DUCHIFAT 1 27 Nov 00:05:51 00:10:02 62° 289° (WNW) 00:14:11 145.980
AUBIESAT-1 27 Nov 00:09:49 00:14:01 63° 65° (ENE) 00:18:36 437.475
AIST 2 27 Nov 00:13:37 00:16:34 18° 343° (NNW) 00:19:31 435.215
ESTCUBE 1 27 Nov 00:14:19 00:17:10 16° 272° (W) 00:20:01 437.505/2401.250
M-CUBED/EXP-1 PRIME 27 Nov 00:15:46 00:19:59 76° 66° (ENE) 00:24:38 437.505
TISAT 1 27 Nov 00:16:50 00:20:53 41° 262° (W) 00:24:56 437.305
NANOSAT C BR1 27 Nov 00:25:37 00:29:35 41° 293° (WNW) 00:33:32 145.865
DANDE 27 Nov 00:26:34 00:30:42 62° 260° (W) 00:36:19 436.750
SPROUT 27 Nov 00:30:01 00:34:00 36° 263° (W) 00:38:01 437.525
QB50P1 27 Nov 00:35:47 00:39:36 33° 295° (WNW) 00:43:23 145.935-145.965
BEESAT 27 Nov 00:35:48 00:40:31 59° 70° (ENE) 00:45:15 436.000
BUGSAT 1 27 Nov 00:41:02 00:44:45 34° 294° (WNW) 00:48:25 437.445
Oscar 19 27 Nov 00:45:37 00:48:18 14° 86° (E) 00:50:59 437.125/150
TIGRISAT 27 Nov 00:46:43 00:50:09 23° 299° (WNW) 00:53:38 435.000
KKS-1 27 Nov 00:47:02 00:50:19 21° 59° (ENE) 00:53:36 437.445
BEESAT 3 27 Nov 00:58:34 01:00:45 14° 2° (N) 01:02:56 437.485
POPSAT HIP 1 27 Nov 01:01:12 01:04:23 21° 300° (WNW) 01:07:35 437.405
UNISAT 6 27 Nov 01:01:20 01:04:18 18° 302° (WNW) 01:07:18 437.425
MaSat-1 27 Nov 01:12:42 01:13:37 12° 249° (WSW) 01:14:32 437.345
BEESAT 2 27 Nov 01:15:02 01:17:18 14° 5° (N) 01:19:34 435.950
RS-15 27 Nov 01:20:12 01:31:15 71° 237° (WSW) 01:42:46 29.354- 29.394
ISS 27 Nov 01:27:43 01:30:59 67° 164° (SSE) 01:34:16 145.825
ANTELSAT 27 Nov 01:31:43 01:32:52 11° 308° (NW) 01:34:01 437.575/2403.000
ITUPSAT 1 27 Nov 01:32:20 01:37:00 49° 260° (W) 01:41:42 437.325
PCSat 27 Nov 01:33:29 01:37:10 18° 15° (NNE) 01:40:51 145.827
POLYITAN 1 27 Nov 01:36:49 01:38:16 12° 307° (NW) 01:39:43 437.675
QB50P2 27 Nov 01:38:32 01:39:50 11° 307° (NW) 01:41:08 145.880/145.840
STARS 27 Nov 01:39:30 01:43:36 40° 66° (ENE) 01:47:43 437.465
ITAMSAT 1 27 Nov 01:40:36 01:43:59 17° 88° (E) 01:47:19 435.822/435.867
CUSAT 1 27 Nov 01:40:45 01:43:19 15° 270° (W) 01:46:14 437.405
SWISSCUBE 27 Nov 01:43:11 01:47:37 37° 263° (W) 01:52:06 437.505
DUCHIFAT 1 27 Nov 01:44:32 01:45:05 10° 308° (NW) 01:45:38 145.980
AUBIESAT-1 27 Nov 01:46:25 01:49:30 19° 265° (W) 01:52:46 437.475
M-CUBED/EXP-1 PRIME 27 Nov 01:53:04 01:55:41 16° 268° (W) 01:58:27 437.505
AIST 2 27 Nov 01:54:17 01:56:48 15° 7° (N) 01:59:18 435.215
YUBILEINY 27 Nov 02:11:02 02:19:12 45° 87° (E) 02:27:22 435.215
BEESAT 27 Nov 02:15:02 02:18:45 22° 269° (W) 02:22:29 436.000
Gurwin Techsat 1B 27 Nov 02:18:39 02:22:47 23° 90° (E) 02:26:55 435.225
KKS-1 27 Nov 02:22:11 02:26:35 62° 258° (WSW) 02:31:02 437.445
Oscar 19 27 Nov 02:23:16 02:28:28 83° 105° (ESE) 02:33:39 437.125/150
BEESAT 3 27 Nov 02:37:04 02:40:25 22° 26° (NNE) 02:43:45 437.485
SO-50 27 Nov 02:47:08 02:47:55 10° 107° (ESE) 02:48:42 436.795
BEESAT 2 27 Nov 02:53:26 02:56:58 25° 29° (NNE) 03:00:29 435.950
ISS 27 Nov 03:04:19 03:07:37 89° 3° (N) 03:10:56 145.825
AO-7 27 Nov 03:14:11 03:19:34 18° 85° (E) 03:24:55 29.400- 29.500
STARS 27 Nov 03:16:25 03:20:13 28° 265° (W) 03:24:02 437.465
PCSat 27 Nov 03:16:57 03:22:04 40° 39° (NE) 03:27:10 145.827
ITAMSAT 1 27 Nov 03:18:56 03:24:09 83° 287° (WNW) 03:29:19 435.822/435.867
HORYU 2 27 Nov 03:25:53 03:30:02 36° 97° (E) 03:34:11 437.375
AIST 2 27 Nov 03:32:59 03:36:46 28° 31° (NNE) 03:40:31 435.215
RS-15 27 Nov 03:33:54 03:41:37 22° 261° (W) 03:49:34 29.354- 29.394
MOZHAYETS 4 27 Nov 03:35:20 03:39:21 30° 63° (ENE) 03:43:23
Gurwin Techsat 1B 27 Nov 03:57:57 04:03:14 66° 290° (WNW) 04:08:30 435.225
Oscar 19 27 Nov 04:03:35 04:07:14 20° 305° (NW) 04:10:54 437.125/150
YUBILEINY 27 Nov 04:07:23 04:15:56 53° 290° (WNW) 04:24:31 435.215
BEESAT 3 27 Nov 04:15:02 04:19:16 81° 47° (NE) 04:23:27 437.485
PRISM 27 Nov 04:22:24 04:25:28 20° 59° (ENE) 04:28:34 437.425
SO-50 27 Nov 04:23:00 04:27:29 62° 127° (SE) 04:32:10 436.795
BEESAT 2 27 Nov 04:31:30 04:35:45 82° 230° (SW) 04:39:57 435.950
ISS 27 Nov 04:40:59 04:44:09 44° 204° (SSW) 04:47:19 145.825
STRAND 1 27 Nov 04:43:33 04:46:58 18° 54° (NE) 04:50:23 437.568
ITAMSAT 1 27 Nov 04:59:38 05:02:55 17° 308° (NW) 05:06:11 435.822/435.867
PCSat 27 Nov 05:00:25 05:05:41 51° 241° (WSW) 05:10:54 145.827
HORYU 2 27 Nov 05:02:40 05:06:42 33° 296° (WNW) 05:10:43 437.375
AO-7 27 Nov 05:05:31 05:13:55 71° 107° (ESE) 05:22:16 29.400- 29.500
AIST 2 27 Nov 05:11:28 05:15:47 69° 232° (SW) 05:20:02 435.215
MOZHAYETS 4 27 Nov 05:12:07 05:16:28 41° 263° (W) 05:20:53
JAS-2 27 Nov 05:12:50 05:19:34 40° 93° (E) 05:25:33 435.910
CUBESAT XI-V 27 Nov 05:20:13 05:24:16 29° 63° (ENE) 05:28:19 437.345
O/OREOS (USA 219) 27 Nov 05:32:39 05:36:08 23° 104° (ESE) 05:39:38 437.305
Gurwin Techsat 1B 27 Nov 05:39:31 05:42:17 15° 310° (NW) 05:45:03 435.225
BEESAT 3 27 Nov 05:54:19 05:56:58 17° 247° (WSW) 05:59:37 437.485
PRISM 27 Nov 05:56:29 06:00:40 60° 258° (WSW) 06:04:53 437.425
SO-50 27 Nov 06:04:10 06:08:22 33° 329° (NNW) 06:12:42 436.795
Cubesat XI-IV 27 Nov 06:08:00 06:12:33 28° 93° (E) 06:17:03 437.490
YUBILEINY 27 Nov 06:10:14 06:15:18 16° 317° (NW) 06:20:23 435.215
BEESAT 2 27 Nov 06:11:24 06:13:22 13° 249° (WSW) 06:15:20 435.950
GONETS M04 27 Nov 06:12:35 06:15:01 11° 64° (ENE) 06:17:26
AIST 1 27 Nov 06:13:53 06:18:00 38° 72° (ENE) 06:22:04
ISS 27 Nov 06:18:56 06:20:10 12° 222° (SW) 06:21:25 145.825
STRAND 1 27 Nov 06:20:20 06:25:30 89° 75° (ENE) 06:30:41 437.568
CUTE-I 27 Nov 06:48:40 06:53:55 56° 101° (E) 06:59:08 437.470
AIST 2 27 Nov 06:52:29 06:53:37 11° 251° (WSW) 06:54:44 435.215
CUBESAT XI-V 27 Nov 06:57:01 07:01:33 45° 262° (W) 07:06:06 437.345
JAS-2 27 Nov 06:57:48 07:04:51 52° 296° (WNW) 07:11:07 435.910
AO-7 27 Nov 06:58:47 07:06:15 38° 309° (NW) 07:13:42 29.400- 29.500
O/OREOS (USA 219) 27 Nov 07:10:50 07:15:14 54° 304° (WNW) 07:19:38 437.305
SO-50 27 Nov 07:47:02 07:50:17 18° 353° (N) 07:53:35 436.795
Cubesat XI-IV 27 Nov 07:47:45 07:52:57 54° 293° (WNW) 07:58:06 437.490
AIST 1 27 Nov 07:51:50 07:55:33 27° 272° (W) 07:59:12
HO-68 27 Nov 07:58:32 08:02:48 16° 84° (E) 08:07:02 435.675
GONETS M04 27 Nov 08:01:10 08:09:30 50° 88° (E) 08:17:54
STRAND 1 27 Nov 08:02:22 08:05:25 16° 273° (W) 08:08:30 437.568
CUTE-I 27 Nov 08:29:13 08:33:44 29° 301° (WNW) 08:38:13 437.470
CUTE 1.7 + AOD 2 27 Nov 08:34:50 08:37:50 18° 90° (E) 08:40:49 437.475
TIGRISAT 27 Nov 08:39:37 08:41:52 14° 55° (NE) 08:44:06 435.000
JAS-2 27 Nov 08:44:09 08:48:14 16° 320° (NW) 08:52:06 435.910
POPSAT HIP 1 27 Nov 08:49:55 08:51:54 13° 55° (NE) 08:53:53 437.405
AO-7 27 Nov 08:52:35 08:56:47 15° 334° (NNW) 09:00:59 29.400- 29.500
UNISAT 6 27 Nov 08:53:14 08:56:11 19° 58° (ENE) 08:59:08 437.425
O/OREOS (USA 219) 27 Nov 08:53:36 08:55:41 13° 326° (NW) 08:57:47 437.305
GOMX 1 27 Nov 09:05:29 09:08:55 24° 93° (E) 09:12:23 467.674
SEEDS 27 Nov 09:05:30 09:09:19 30° 95° (E) 09:13:06 437.485
UKube-1 27 Nov 09:07:35 09:09:12 12° 86° (E) 09:10:49 .
Oscar 11 27 Nov 09:16:40 09:19:37 18° 89° (E) 09:22:33 145.826/435.025
DELFI C3 27 Nov 09:18:16 09:20:41 15° 88° (E) 09:23:06 145.870
AAUSAT CUBESAT 2 27 Nov 09:19:24 09:23:13 32° 95° (E) 09:27:01 437.432
ANTELSAT 27 Nov 09:21:09 09:24:54 31° 64° (ENE) 09:28:41 437.575/2403.000
POLYITAN 1 27 Nov 09:22:37 09:26:03 24° 62° (ENE) 09:29:29 437.675
QB50P2 27 Nov 09:23:59 09:27:27 25° 62° (ENE) 09:30:56 145.880/145.840
SO-50 27 Nov 09:28:47 09:32:28 21° 18° (NNE) 09:36:12 436.795
DUCHIFAT 1 27 Nov 09:28:56 09:32:30 27° 63° (ENE) 09:36:04 145.980
Cubesat XI-IV 27 Nov 09:29:54 09:31:57 12° 313° (NW) 09:34:00 437.490
CANX-2 27 Nov 09:35:22 09:39:40 71° 103° (ESE) 09:43:58 2200.000
COMPASS 1 27 Nov 09:35:33 09:39:42 50° 100° (E) 09:43:51 437.405
BRITE-PL 27 Nov 09:41:07 09:45:17 71° 103° (ESE) 09:49:27 437.365/2234.400
UWE-3 27 Nov 09:41:37 09:44:22 17° 90° (E) 09:47:09 435.000/436.395/437.385
DX 1 27 Nov 09:43:05 09:46:45 26° 94° (E) 09:50:23 434.975-435.025
CUBEBUG 2 27 Nov 09:44:11 09:47:19 20° 91° (E) 09:50:30 437.445
HO-68 27 Nov 09:44:37 09:51:50 72° 105° (ESE) 09:58:58 435.675
NANOSAT C BR1 27 Nov 09:48:07 09:52:04 39° 67° (ENE) 09:56:02 145.865
DOVE 4 27 Nov 09:54:10 09:58:16 54° 100° (E) 10:02:27 437.250
GONETS M04 27 Nov 09:57:56 10:06:25 49° 292° (WNW) 10:14:59
QB50P1 27 Nov 09:58:04 10:02:09 48° 69° (ENE) 10:06:16 145.935-145.965
BUGSAT 1 27 Nov 10:00:56 10:04:58 44° 68° (ENE) 10:08:59 437.445
CUTE 1.7 + AOD 2 27 Nov 10:09:55 10:14:10 59° 289° (WNW) 10:18:23 437.475
ZACube-1 27 Nov 10:12:45 10:16:25 28° 94° (E) 10:20:07 437.345
TIGRISAT 27 Nov 10:13:45 10:18:01 90° 249° (WSW) 10:22:19 435.000
CINEMA 3 27 Nov 10:19:04 10:23:15 61° 101° (ESE) 10:27:31 145.822/145.860
VELOX 1 27 Nov 10:19:34 10:23:00 22° 92° (E) 10:26:24 145.980
POPSAT HIP 1 27 Nov 10:22:54 10:27:10 83° 74° (ENE) 10:31:26 437.405
ESTCUBE 1 27 Nov 10:25:12 10:26:27 11° 85° (E) 10:27:43 437.505/2401.250
UNISAT 6 27 Nov 10:28:20 10:32:34 65° 258° (WSW) 10:36:51 437.425
SEEDS 27 Nov 10:41:18 10:45:12 35° 294° (WNW) 10:49:05 437.485
UKube-1 27 Nov 10:41:41 10:46:04 87° 106° (ESE) 10:50:24 .
GOMX 1 27 Nov 10:43:21 10:47:15 40° 292° (WNW) 10:51:12 467.674
AISAT 27 Nov 10:46:21 10:50:29 37° 97° (E) 10:54:36 437.250
FUNcube-1 27 Nov 10:47:05 10:51:16 58° 101° (E) 10:55:31 145.935
Oscar 11 27 Nov 10:51:54 10:56:13 64° 288° (WNW) 11:00:32 145.826/435.025
DELFI C3 27 Nov 10:52:20 10:56:28 69° 287° (WNW) 11:00:35 145.870
CUBEBUG 1 27 Nov 10:54:10 10:57:18 19° 90° (E) 11:00:25 437.445
AAUSAT CUBESAT 2 27 Nov 10:55:06 10:58:55 33° 294° (WNW) 11:02:43 437.432
POLYITAN 1 27 Nov 10:57:42 11:01:48 46° 261° (W) 11:05:55 437.675
ANTELSAT 27 Nov 10:57:48 11:01:42 34° 264° (W) 11:05:38 437.575/2403.000
50 SAT 27 Nov 10:58:55 11:02:47 40° 98° (E) 11:06:38 437.505
QB50P2 27 Nov 10:59:07 11:03:12 44° 261° (W) 11:07:18 145.880/145.840
DUCHIFAT 1 27 Nov 11:04:13 11:08:15 40° 262° (W) 11:12:16 145.980
SO-50 27 Nov 11:09:15 11:14:01 54° 40° (NE) 11:18:49 436.795
COMPASS 1 27 Nov 11:11:52 11:15:11 23° 298° (WNW) 11:18:29 437.405
CANX-2 27 Nov 11:12:19 11:15:09 17° 302° (WNW) 11:18:00 2200.000
UWE-3 27 Nov 11:17:10 11:21:21 64° 288° (WNW) 11:25:37 435.000/436.395/437.385
DX 1 27 Nov 11:19:03 11:23:10 42° 293° (WNW) 11:27:16 434.975-435.025
CUBEBUG 2 27 Nov 11:20:14 11:24:21 53° 290° (WNW) 11:28:33 437.445
HUMSAT D 27 Nov 11:20:19 11:24:30 79° 103° (ESE) 11:28:42 437.325/437.525
BRITE-PL 27 Nov 11:20:50 11:23:23 16° 302° (WNW) 11:25:55 437.365/2234.400
NANOSAT C BR1 27 Nov 11:24:28 11:28:05 27° 266° (W) 11:31:43 145.865
DOVE 4 27 Nov 11:32:44 11:35:47 20° 299° (WNW) 11:38:52 437.250
HO-68 27 Nov 11:32:52 11:39:04 33° 307° (NW) 11:45:15 435.675
QB50P1 27 Nov 11:35:00 11:38:19 22° 268° (W) 11:41:39 145.935-145.965
BUGSAT 1 27 Nov 11:37:13 11:40:40 24° 267° (W) 11:44:07 437.445
ZACube-1 27 Nov 11:49:00 11:52:55 37° 293° (WNW) 11:56:52 437.345
CUTE 1.7 + AOD 2 27 Nov 11:49:10 11:49:14 10° 308° (NW) 11:49:19 437.475
TIGRISAT 27 Nov 11:53:57 11:55:28 12° 274° (W) 11:56:59 435.000
VELOX 1 27 Nov 11:55:35 11:59:55 52° 291° (WNW) 12:04:12 145.980
TISAT 1 27 Nov 11:56:58 12:00:16 22° 92° (E) 12:03:33 437.305
CINEMA 3 27 Nov 11:57:11 12:00:08 19° 300° (WNW) 12:03:07 145.822/145.860
ESTCUBE 1 27 Nov 11:59:34 12:04:09 77° 104° (ESE) 12:08:41 437.505/2401.250
GONETS M04 27 Nov 12:01:16 12:06:02 15° 319° (NW) 12:10:48
POPSAT HIP 1 27 Nov 12:01:39 12:03:40 13° 273° (W) 12:05:41 437.405
Oscar 19 27 Nov 12:07:07 12:11:43 35° 63° (ENE) 12:16:21 437.125/150
Gurwin Techsat 1B 27 Nov 12:08:48 12:11:06 13° 48° (NE) 12:13:24 435.225
SPROUT 27 Nov 12:11:28 12:15:09 27° 94° (E) 12:18:49 437.525
YUBILEINY 27 Nov 12:13:48 12:21:23 32° 59° (ENE) 12:28:53 435.215
UKube-1 27 Nov 12:19:09 12:21:39 15° 305° (NW) 12:24:09 .
AISAT 27 Nov 12:23:10 12:27:04 31° 297° (WNW) 12:30:56 437.250
FUNcube-1 27 Nov 12:24:14 12:27:19 20° 300° (WNW) 12:30:25 145.935
CUBEBUG 1 27 Nov 12:29:45 12:34:05 58° 290° (WNW) 12:38:20 437.445
DELFI C3 27 Nov 12:29:57 12:31:01 11° 306° (NW) 12:32:05 145.870
Oscar 11 27 Nov 12:30:28 12:31:34 11° 308° (NW) 12:32:41 145.826/435.025
AO-7 27 Nov 12:30:46 12:35:29 17° 29° (NNE) 12:40:13 29.400- 29.500
50 SAT 27 Nov 12:34:37 12:37:56 25° 297° (WNW) 12:41:17 437.505
SO-50 27 Nov 12:50:05 12:54:27 34° 240° (WSW) 12:58:50 436.795
UWE-3 27 Nov 12:56:25 12:57:08 10° 307° (NW) 12:57:51 435.000/436.395/437.385
HORYU 2 27 Nov 12:56:46 12:58:12 11° 51° (NE) 12:59:38 437.375
HUMSAT D 27 Nov 12:57:22 12:59:49 15° 303° (WNW) 13:02:16 437.325/437.525
ITAMSAT 1 27 Nov 13:03:24 13:08:19 44° 65° (ENE) 13:13:16 435.822/435.867
CUSAT 1 27 Nov 13:16:11 13:18:44 58° 100° (E) 13:21:26 437.405
AUBIESAT-1 27 Nov 13:22:31 13:26:38 26° 98° (E) 13:30:41 437.475
HO-68 27 Nov 13:22:59 13:24:41 11° 331° (NNW) 13:26:24 435.675
ITUPSAT 1 27 Nov 13:27:44 13:31:59 30° 95° (E) 13:36:11 437.325
M-CUBED/EXP-1 PRIME 27 Nov 13:28:45 13:33:10 32° 100° (E) 13:37:30 437.505
TISAT 1 27 Nov 13:32:18 13:36:22 47° 291° (WNW) 13:40:24 437.305
ESTCUBE 1 27 Nov 13:37:29 13:40:30 18° 303° (WNW) 13:43:31 437.505/2401.250
SWISSCUBE 27 Nov 13:37:52 13:42:24 39° 97° (E) 13:46:53 437.505
Gurwin Techsat 1B 27 Nov 13:44:50 13:50:02 58° 68° (ENE) 13:55:16 435.225
Oscar 19 27 Nov 13:46:12 13:51:01 41° 262° (W) 13:55:53 437.125/150
SPROUT 27 Nov 13:47:22 13:51:22 39° 293° (WNW) 13:55:20 437.525
DANDE 27 Nov 13:49:27 13:52:02 53° 285° (WNW) 13:54:40 436.750
JAS-2 27 Nov 13:50:02 13:53:10 13° 36° (NE) 13:56:16 435.910
O/OREOS (USA 219) 27 Nov 13:57:14 14:00:42 21° 43° (NE) 14:04:08 437.305
BEESAT 27 Nov 14:08:27 14:13:16 67° 103° (ESE) 14:18:02 436.000
KKS-1 27 Nov 14:08:56 14:11:59 18° 90° (E) 14:15:02 437.445
CUBEBUG 1 27 Nov 14:09:05 14:09:34 10° 309° (NW) 14:10:03 437.445
YUBILEINY 27 Nov 14:10:27 14:19:11 78° 264° (W) 14:27:50 435.215
AO-7 27 Nov 14:18:35 14:26:15 44° 54° (NE) 14:33:58 29.400- 29.500
HORYU 2 27 Nov 14:29:39 14:34:02 64° 71° (ENE) 14:38:28 437.375
ITAMSAT 1 27 Nov 14:43:17 14:47:58 33° 265° (W) 14:52:40 435.822/435.867
MaSat-1 27 Nov 14:45:03 14:46:45 15° 112° (ESE) 14:48:23 437.345
AUBIESAT-1 27 Nov 14:57:04 15:01:53 56° 297° (WNW) 15:06:38 437.475
STARS 27 Nov 15:00:28 15:04:34 36° 97° (E) 15:08:38 437.465
M-CUBED/EXP-1 PRIME 27 Nov 15:03:36 15:08:20 47° 299° (WNW) 15:13:01 437.505
ITUPSAT 1 27 Nov 15:05:28 15:10:02 43° 294° (WNW) 15:14:33 437.325
SWISSCUBE 27 Nov 15:15:54 15:20:13 34° 297° (WNW) 15:24:30 437.505
Gurwin Techsat 1B 27 Nov 15:25:58 15:30:22 26° 268° (W) 15:34:47 435.225
JAS-2 27 Nov 15:29:10 15:36:11 38° 58° (ENE) 15:43:10 435.910
O/OREOS (USA 219) 27 Nov 15:36:08 15:40:36 73° 245° (WSW) 15:45:04 437.305
KKS-1 27 Nov 15:44:40 15:49:05 64° 289° (WNW) 15:53:28 437.445
BEESAT 27 Nov 15:47:05 15:50:42 22° 302° (WNW) 15:54:18 436.000
RS-15 27 Nov 15:50:28 16:00:27 44° 112° (ESE) 16:10:28 29.354- 29.394
Cubesat XI-IV 27 Nov 15:58:10 16:01:23 16° 51° (NE) 16:04:35 437.490
HORYU 2 27 Nov 16:08:08 16:11:10 18° 270° (W) 16:14:13 437.375
YUBILEINY 27 Nov 16:08:43 16:14:32 20° 287° (WNW) 16:20:21 435.215
GONETS M04 27 Nov 16:09:39 16:11:36 11° 31° (NNE) 16:13:33
AO-7 27 Nov 16:10:40 16:18:51 60° 256° (WSW) 16:27:06 29.400- 29.500
MaSat-1 27 Nov 16:18:32 16:21:04 32° 308° (NW) 16:23:25 437.345
PHONESAT 2.4 27 Nov 16:21:34 16:23:39 14° 174° (S) 16:25:43 2401.200-2431.200
VERMONT LUNAR 27 Nov 16:25:16 16:27:18 14° 179° (S) 16:29:20 437.305
AUBIESAT-1 27 Nov 16:33:39 16:35:56 13° 316° (NW) 16:38:14 437.475
STARS 27 Nov 16:37:08 16:41:00 31° 296° (WNW) 16:44:52 437.465
CUTE-I 27 Nov 16:37:18 16:41:50 29° 59° (ENE) 16:46:21 437.470
M-CUBED/EXP-1 PRIME 27 Nov 16:40:40 16:42:20 12° 318° (NW) 16:43:59 437.505
MOZHAYETS 4 27 Nov 17:01:47 17:06:02 33° 95° (E) 17:10:14
JAS-2 27 Nov 17:13:04 17:20:48 67° 259° (WSW) 17:28:37 435.910
O/OREOS (USA 219) 27 Nov 17:18:40 17:19:09 10° 264° (W) 17:19:38 437.305
KKS-1 27 Nov 17:23:31 17:24:54 11° 309° (NW) 17:26:16 437.445
Cubesat XI-IV 27 Nov 17:35:18 17:40:39 75° 71° (ENE) 17:46:01 437.490
PRISM 27 Nov 17:35:44 17:38:04 14° 88° (E) 17:40:23 437.425
PHONESAT 2.4 27 Nov 17:59:47 18:01:33 13° 191° (SSW) 18:03:18 2401.200-2431.200
